Vorticity
4 6 9 10 11 9 8 6 5 5 4 4 4 4 5 5 4 4 5 6 7 6 7 5 5 5 5 4 5 7 8 10 11 11 10 7 8 8 7 3 -0 3 5 4 3 2 1 2 2 2 2 2 4 6 8 9 9 10 10 9 9 9 9 8 8 7 7 7 6 6 6 5 6 6 6 6 6 6 7 7 7 6 5 4 3 2 3 2 3 2 1 2 4 4 4 3 3
4 4 6 7 8 7 6 6 5 5 4 3 3 4 5 5 4 4 6 7 8 7 6 5 3 3 3 4 5 8 8 8 10 9 8 8 8 7 6 3 1 3 4 4 3 3 3 2 2 2 2 1 2 2 4 7 9 11 10 10 10 9 9 8 8 7 7 6 6 6 6 6 6 7 7 7 7 7 7 6 4 4 2 2 1 1 2 3 3 2 1 2 4 5 5 7 5
5 3 4 5 5 5 5 5 5 5 5 4 2 4 4 4 5 4 5 6 7 8 7 5 4 4 3 3 5 8 8 9 10 9 9 8 7 7 6 3 3 3 3 4 3 4 5 4 4 4 4 3 2 1 1 3 5 8 9 10 10 10 10 10 9 9 9 9 9 8 8 8 9 9 8 7 7 6 5 4 2 2 2 1 1 1 2 3 3 4 3 5 7 7 7 9 8
5 4 4 4 4 4 4 4 5 5 5 4 2 3 3 3 5 5 4 4 6 7 7 5 4 5 4 3 5 8 9 9 9 10 10 8 6 6 5 3 3 4 4 3 2 4 5 6 6 5 6 5 5 4 3 2 2 3 6 7 8 8 8 9 9 9 10 9 10 9 9 9 9 8 7 6 5 4 3 2 2 2 2 2 2 2 3 3 4 5 5 7 8 7 8 9 7
5 5 4 4 4 5 4 4 4 5 5 5 4 4 3 2 3 5 4 4 5 6 7 6 4 4 4 4 6 9 10 8 7 10 10 8 7 6 5 3 3 5 5 3 1 2 5 6 5 5 6 6 7 6 6 5 4 3 2 4 4 5 6 6 7 7 7 7 7 7 7 6 6 6 5 4 3 3 2 2 1 1 2 2 3 4 5 5 6 7 7 7 7 6 7 7 6
6 5 5 4 3 4 4 4 4 5 5 5 5 5 4 2 3 5 5 5 5 6 6 6 4 3 5 6 7 9 10 9 8 10 10 8 7 6 5 3 4 6 5 5 1 1 4 4 4 5 5 5 5 5 6 6 6 5 4 3 3 3 3 4 4 5 5 5 5 5 5 4 4 4 3 3 2 2 1 1 2 2 3 4 5 6 7 7 7 7 7 6 6 5 6 6 5
6 4 3 4 4 3 3 4 4 4 5 6 5 5 5 3 3 3 5 6 6 6 6 7 5 4 5 7 7 7 9 10 8 9 11 10 8 6 6 4 4 4 6 7 4 2 3 4 5 5 5 5 4 4 4 4 6 6 6 5 5 4 3 3 3 3 4 3 4 3 3 3 3 3 2 2 2 2 2 2 3 4 5 6 7 7 7 7 7 7 6 6 6 5 5 6 6
2 3 2 2 3 4 3 2 3 4 4 5 5 5 6 5 4 2 4 5 5 6 6 7 6 4 4 6 6 7 8 9 8 8 12 13 9 7 7 5 3 3 4 8 7 5 4 5 6 6 6 6 5 4 3 4 4 5 5 5 6 6 5 5 5 4 4 4 3 3 3 3 3 2 2 2 3 3 4 5 6 7 8 8 8 7 7 7 7 6 6 6 6 7 9 10 12
-1 1 2 1 1 2 3 1 2 3 3 4 4 4 5 6 5 3 4 4 4 5 6 7 6 4 4 6 5 5 9 10 8 9 14 14 11 8 7 6 4 3 1 4 7 7 7 6 6 6 6 7 7 7 6 5 4 4 4 5 5 5 6 5 6 6 5 5 5 5 5 5 4 5 5 5 5 6 6 7 7 7 7 7 6 6 6 6 6 6 8 10 11 13 14 13 12
4 1 2 2 1 1 1 1 1 2 2 3 3 4 5 5 4 4 4 4 4 4 5 6 7 6 4 5 5 4 8 10 9 9 12 13 12 9 7 7 6 5 2 1 5 6 6 5 5 6 6 7 7 7 7 6 5 5 5 5 6 5 6 6 6 6 6 6 6 6 6 7 7 7 7 7 7 7 7 7 7 6 6 6 6 6 6 6 8 9 11 12 13 12 11 8 6
12 8 6 2 1 1 1 1 1 2 3 3 3 4 5 3 3 4 5 5 5 4 5 5 6 7 6 6 6 2 3 9 11 9 9 11 12 11 8 7 6 6 4 2 4 5 5 5 5 5 6 6 6 6 6 6 6 6 6 6 6 6 6 6 6 5 6 6 6 6 6 6 6 6 6 6 6 6 6 5 5 5 6 6 6 6 7 9 10 10 9 9 8 6 5 3 3
13 12 11 7 2 1 3 2 2 3 4 6 4 2 3 2 3 4 5 4 4 4 4 5 4 6 7 7 8 4 1 6 9 8 8 9 11 12 11 8 6 6 5 4 4 5 5 4 4 4 5 5 5 5 4 4 5 5 5 5 5 5 5 5 5 5 4 4 5 5 5 5 5 6 6 5 6 6 5 5 5 5 6 6 7 8 9 10 10 9 7 6 3 2 3 2 2
11 12 14 12 7 4 7 7 6 5 5 10 6 0 2 2 3 4 5 5 4 5 5 5 4 5 6 7 9 6 2 3 6 9 8 8 11 13 13 10 7 6 5 5 5 6 5 4 4 4 4 4 4 3 3 3 4 4 4 4 4 4 4 4 3 3 3 3 4 4 4 4 5 5 5 6 6 6 7 7 7 8 8 9 10 10 10 8 7 6 5 4 2 2 2 2 1
9 11 13 14 9 7 11 11 12 12 8 11 6 1 4 3 2 4 5 6 5 5 5 5 4 4 5 8 10 7 4 5 5 8 9 9 9 12 13 11 8 7 7 7 7 6 5 4 4 4 4 4 3 3 3 2 3 3 3 3 3 3 3 3 3 3 3 3 3 4 4 4 5 6 6 7 7 7 8 8 8 8 8 9 9 9 8 7 5 4 3 3 2 2 2 2 2
5 7 11 14 9 7 10 10 13 16 10 10 10 6 6 3 2 3 3 5 6 6 5 5 5 3 3 5 8 5 3 5 5 5 8 9 8 10 12 12 10 7 7 7 8 7 6 5 4 4 4 4 4 3 3 2 3 2 2 3 3 3 3 3 3 3 4 4 5 5 5 6 6 7 8 8 9 9 8 8 8 7 7 6 7 7 6 5 4 3 2 3 2 2 2 2 2
4 5 8 10 8 4 3 5 10 13 9 12 17 12 8 6 4 3 2 3 6 6 6 6 6 4 4 4 6 5 2 4 5 4 6 7 8 9 10 12 12 8 6 6 6 8 8 7 5 5 5 5 5 4 4 3 3 3 4 4 4 4 4 5 5 5 6 6 7 7 7 8 8 8 9 10 9 9 8 8 8 7 7 6 6 5 4 2 2 2 1 1 2 2 2 3 2
4 4 6 7 7 3 -1 4 9 9 6 8 15 14 11 11 10 8 4 3 4 4 5 6 6 5 5 5 7 5 2 3 5 5 4 6 8 9 9 9 13 12 7 6 6 8 10 9 8 7 6 6 6 6 6 6 6 5 5 5 6 6 6 7 6 7 7 8 8 9 10 9 10 10 8 8 8 8 8 7 6 6 5 5 5 4 3 2 2 2 1 0 0 1 1 2 1
3 3 5 7 5 -0 -1 5 6 5 4 4 9 10 10 10 11 12 9 6 3 3 5 6 5 5 4 2 5 4 2 4 4 5 4 5 8 10 11 8 11 14 10 8 9 8 9 9 9 8 7 7 7 7 7 8 8 7 7 7 6 7 7 7 7 8 8 9 10 9 10 9 8 8 8 8 7 7 6 6 5 5 5 4 4 3 2 2 2 2 0 1 0 1 0 0 0
2 2 5 6 1 -1 1 3 2 4 4 5 7 8 9 7 8 13 12 10 7 4 4 6 6 4 3 1 3 4 2 4 5 6 6 5 6 7 11 11 9 12 12 10 10 9 8 10 10 9 8 7 7 8 8 8 8 7 7 7 6 6 6 6 6 7 8 8 9 8 8 8 8 8 8 7 5 4 4 5 4 4 3 2 3 2 2 2 2 1 1 2 0 0 0 0 -0
3 2 3 3 1 2 3 1 0 4 6 6 5 6 7 3 7 12 11 13 12 9 5 5 5 4 4 2 2 4 2 4 6 6 7 5 5 5 8 12 11 10 11 10 9 8 7 8 9 11 11 10 8 7 8 7 8 8 7 7 7 6 6 6 6 6 7 7 7 7 6 7 7 6 6 5 4 4 4 4 3 3 2 0 2 2 1 2 1 0 1 1 -0 -1 -1 0 0
6 1 1 2 2 3 2 0 1 3 5 6 3 4 2 1 8 9 10 16 12 10 11 8 5 4 4 3 3 4 2 3 4 5 6 6 5 5 5 9 13 12 10 10 10 8 7 7 6 9 10 11 10 8 7 7 7 7 7 7 6 6 6 6 7 7 7 7 8 7 6 6 6 5 5 5 5 5 4 3 1 2 1 -0 2 2 0 2 2 0 0 0 -0 -0 -0 -0 1
9 3 2 3 1 2 1 0 2 2 4 5 3 3 1 3 7 3 9 17 8 5 11 11 8 5 3 4 4 3 3 3 3 2 4 5 5 6 5 5 10 14 11 9 11 9 7 7 6 7 8 9 10 9 8 6 6 6 6 6 6 6 7 6 6 7 7 7 8 7 7 7 7 7 5 5 4 3 2 2 1 1 1 -0 0 2 1 1 1 -0 -0 0 -0 0 0 -0 0
11 4 3 4 3 3 1 1 2 1 4 3 2 4 3 3 2 1 9 14 7 4 9 12 11 9 5 3 3 2 3 2 2 2 2 4 5 6 7 5 6 11 12 9 11 10 8 8 7 6 7 8 9 10 9 7 6 5 5 5 5 6 6 6 5 5 7 7 7 6 6 6 7 7 6 4 3 3 3 2 2 1 1 1 0 1 1 1 1 -0 -0 0 0 1 0 0 1
15 10 5 4 5 5 2 2 1 1 2 2 3 4 2 2 2 5 9 6 2 2 8 14 14 12 9 7 5 2 2 2 2 3 2 2 4 5 7 8 5 7 10 10 11 10 7 8 9 6 5 6 7 8 8 7 7 5 5 4 5 6 5 5 4 4 5 6 6 6 6 5 5 5 4 4 4 3 3 2 2 2 1 0 0 1 1 0 1 1 -0 0 1 1 0 1 1
16 16 11 8 7 6 5 4 3 4 3 2 3 3 3 1 5 10 5 -1 -1 3 9 14 15 15 12 9 8 5 4 4 3 2 3 2 3 4 6 8 6 4 6 8 11 12 9 8 9 8 6 5 6 7 7 7 7 5 5 5 4 5 4 4 4 3 4 5 5 5 5 5 4 3 3 3 4 3 2 2 1 2 1 -0 0 1 0 -0 1 1 -0 1 1 1 1 1 2
10 14 16 15 12 9 8 6 5 6 5 5 2 1 2 -0 8 13 1 -3 2 7 9 9 13 15 13 11 9 9 8 5 4 3 2 2 3 4 4 5 6 5 4 5 8 11 11 9 9 9 9 7 6 6 7 7 7 7 6 6 5 4 4 3 3 3 3 4 5 5 4 4 4 3 3 2 2 2 1 1 1 1 1 -0 0 1 0 -0 1 1 0 1 1 2 2 1 1
5 7 12 16 17 14 12 10 6 6 5 7 7 5 1 -2 10 9 -6 -1 5 7 8 7 10 10 11 13 9 11 11 8 7 4 3 3 5 6 4 3 4 5 5 5 5 7 9 10 9 9 9 9 8 6 6 6 6 6 7 6 5 5 4 3 3 3 3 3 4 5 4 4 4 4 4 4 3 2 1 1 1 1 1 -0 0 0 0 0 1 1 1 1 1 2 1 1 1
6 6 7 7 13 15 14 13 10 10 7 5 9 9 2 -1 7 1 -8 -1 3 5 7 6 9 7 7 11 10 10 10 9 10 7 4 3 4 5 4 4 4 5 5 5 5 5 7 9 10 10 10 9 9 9 7 7 6 6 6 5 5 5 4 4 4 3 3 3 3 3 4 4 5 5 4 4 4 4 3 2 1 1 1 0 1 0 0 1 1 1 1 1 2 2 1 1 1
5 6 8 3 5 11 13 14 12 13 13 7 10 12 4 1 5 -0 -2 1 -1 4 7 5 8 7 5 7 10 11 8 8 9 8 5 4 3 1 2 3 4 4 5 5 5 6 5 5 8 9 11 10 9 10 9 8 8 7 7 6 6 5 4 4 3 4 3 3 3 3 4 5 5 5 5 5 5 5 5 4 3 3 2 2 1 1 1 1 1 1 1 1 1 1 1 1 1
3 3 9 4 1 5 7 11 11 11 13 10 13 18 7 -0 3 3 2 0 -2 2 5 7 9 7 6 6 8 10 9 9 8 8 7 6 4 2 2 2 3 4 4 5 5 5 6 5 5 7 9 11 9 9 10 10 10 9 9 8 7 7 7 6 5 5 5 4 4 4 4 5 5 5 5 5 5 5 5 5 5 5 4 4 4 4 3 3 3 2 1 1 1 1 2 2 2
2 1 4 4 5 2 -4 4 8 7 8 6 11 22 15 3 2 3 0 -0 0 1 3 7 9 8 7 6 7 10 11 11 9 10 9 8 7 5 4 4 3 5 5 7 7 6 6 6 6 6 7 10 11 9 9 10 12 11 10 8 8 8 8 9 8 7 7 6 5 5 4 4 4 5 5 5 5 5 5 5 5 6 6 6 6 6 6 6 6 5 5 4 4 4 4 3 4
3 7 5 2 8 5 -6 -1 4 3 5 2 3 15 23 16 9 6 5 5 3 2 2 3 6 7 6 6 6 8 10 10 9 10 11 10 8 6 5 5 5 5 7 7 7 6 6 7 7 7 7 8 9 10 8 9 11 12 10 8 8 8 8 8 9 8 8 8 7 7 7 6 6 6 6 6 6 6 6 6 7 7 7 7 8 8 7 7 7 7 7 6 6 6 6 5 5
6 12 9 3 6 6 -1 -2 -1 -1 2 3 1 8 19 21 19 18 16 14 10 5 3 0 2 4 4 5 4 4 9 12 10 8 10 10 10 8 6 6 6 4 5 6 5 5 4 4 5 6 7 7 7 8 8 9 11 12 10 9 7 7 8 8 7 8 9 8 8 8 8 8 8 8 8 8 8 8 8 8 8 8 9 9 9 9 9 9 8 8 7 7 8 7 8 8 8
7 6 5 4 4 7 4 -2 -4 -2 0 2 2 6 9 4 5 10 9 11 12 11 11 6 3 4 5 6 3 2 4 9 12 9 8 9 10 11 8 5 5 3 3 4 5 6 5 5 4 4 5 5 6 6 7 8 9 11 11 9 8 7 6 8 8 8 9 9 9 9 9 9 9 9 9 9 10 11 11 12 11 11 11 11 12 12 12 12 12 12 11 11 11 12 12 12 13
8 6 6 6 5 8 8 3 -0 -0 1 1 2 5 5 -3 -6 -1 -1 -0 4 7 11 12 9 6 6 6 4 2 1 3 8 12 11 9 9 14 15 8 4 4 4 6 7 7 7 5 3 3 4 4 5 5 5 6 6 8 10 8 8 7 7 7 7 7 7 7 8 9 9 10 10 10 10 10 10 10 11 12 12 12 12 11 11 12 12 13 13 14 14 14 14 15 15 15 15
11 12 13 12 9 8 8 12 11 8 7 2 1 5 6 4 -2 -3 1 -1 -1 2 4 8 12 11 7 7 6 4 3 3 4 8 12 12 9 10 15 14 9 6 4 3 5 7 9 9 6 3 3 3 4 6 5 5 6 6 8 9 8 7 7 6 7 6 5 5 6 6 7 8 9 10 10 10 10 10 9 9 10 11 11 11 11 11 11 11 11 11 11 11 11 10 10 10 9
16 17 18 17 15 12 9 14 18 16 18 12 4 8 10 6 -4 -8 2 3 -0 3 1 2 7 10 9 7 8 6 4 5 3 3 8 12 11 7 7 11 13 12 10 7 4 2 3 7 9 6 3 3 3 5 7 6 5 6 7 7 8 8 7 7 8 7 6 5 5 5 5 5 6 7 7 8 8 8 8 8 8 8 9 9 9 9 9 9 9 9 9 8 8 7 5 5 5
18 19 20 19 19 21 15 12 14 13 20 19 7 9 13 6 -5 -11 -4 2 2 3 2 3 5 8 10 8 8 8 5 5 4 2 5 8 10 10 7 6 7 9 12 13 12 13 15 14 12 8 3 2 3 4 6 7 5 5 6 6 5 6 6 7 9 9 9 6 5 4 4 4 5 6 7 7 7 7 7 7 7 7 8 8 8 9 8 8 8 8 7 7 7 7 7 6 6
18 19 22 22 19 24 21 13 16 16 20 23 10 12 19 11 3 -5 -7 0 4 4 2 3 5 6 8 9 8 9 7 5 4 4 4 5 7 9 11 11 10 8 6 4 5 10 16 19 20 18 9 1 2 5 5 6 6 4 5 6 5 5 5 6 7 9 11 10 9 6 5 4 4 5 6 6 7 7 7 7 7 7 7 7 7 7 7 7 6 6 7 6 6 7 8 8 8
18 17 18 24 21 26 28 15 11 12 17 25 18 16 19 13 13 9 3 5 4 3 2 1 5 6 7 9 9 9 9 6 4 4 4 4 5 7 8 10 12 11 10 8 7 4 2 1 6 18 22 9 -0 3 5 3 5 6 6 6 7 7 6 6 6 7 9 10 11 10 8 6 5 5 5 6 6 6 7 6 7 7 6 6 6 5 6 5 5 6 7 8 8 7 7 7 7
17 15 15 25 22 18 24 19 12 10 11 20 24 27 24 11 12 15 8 9 7 3 4 3 3 4 6 8 8 10 11 9 7 5 5 3 3 4 4 6 8 9 9 10 13 14 10 6 1 5 21 25 11 3 6 7 5 5 5 6 7 7 7 6 6 6 6 8 9 9 9 8 7 7 6 6 6 6 7 7 7 7 7 7 7 7 7 8 8 8 8 8 8 8 8 7 7
14 13 16 20 14 7 14 20 19 16 13 12 14 29 38 18 6 12 9 6 8 8 7 8 6 6 11 11 8 8 9 8 8 6 6 5 3 3 4 7 9 9 10 9 9 12 13 16 13 3 5 20 22 10 3 6 9 7 5 5 6 7 8 7 6 6 6 6 7 7 8 7 7 6 7 7 6 7 7 7 7 7 7 7 7 8 8 8 8 8 8 8 8 8 8 8 8
15 16 13 7 8 11 14 16 16 17 21 18 7 16 42 39 11 4 13 11 5 6 3 4 11 12 12 15 13 12 12 9 8 6 6 7 5 5 4 5 5 6 8 7 6 10 11 11 14 10 2 5 17 19 11 4 3 6 5 5 6 7 7 7 7 6 6 6 6 6 6 6 6 5 6 6 6 7 6 7 7 7 7 7 8 8 8 8 8 8 7 7 7 7 7 7 7
18 18 12 8 11 13 12 12 10 10 15 16 9 6 27 53 34 -1 7 21 8 7 11 9 17 20 13 15 17 16 17 15 12 9 8 8 7 6 5 4 5 6 6 6 7 8 9 10 10 13 11 5 4 11 18 15 9 5 4 4 4 5 7 7 6 6 7 7 6 7 6 6 6 6 6 6 6 6 6 6 7 8 8 8 9 9 8 8 8 8 7 6 6 6 6 6 6
15 14 12 15 18 15 14 13 8 12 14 10 13 10 9 40 50 11 5 24 9 1 13 10 9 13 10 10 11 11 15 17 16 14 13 13 12 10 9 8 7 6 5 6 9 8 8 10 8 9 13 12 6 1 5 13 16 12 8 6 5 5 7 8 7 6 7 7 6 6 6 6 7 7 7 7 6 6 5 6 6 7 8 8 9 8 8 8 8 7 7 7 6 6 6 6 6
10 11 12 15 16 13 12 10 8 11 10 7 14 16 8 22 43 30 23 35 21 4 10 13 9 7 7 8 8 9 12 14 15 14 13 13 13 11 9 8 7 8 9 10 12 11 10 8 7 8 9 11 12 8 2 2 9 14 13 11 9 8 8 8 7 7 6 6 5 5 5 6 7 7 7 7 7 6 6 6 7 7 7 8 7 8 8 7 7 7 7 7 6 6 5 5 5
9 11 12 12 9 10 9 8 13 9 2 7 15 15 11 12 27 37 36 38 35 27 22 21 21 19 17 18 17 13 10 9 11 12 12 10 11 11 8 7 7 7 8 8 8 7 7 8 8 8 8 8 10 10 8 3 3 10 13 11 9 8 8 7 6 6 5 5 5 5 6 7 7 7 7 7 6 6 7 7 7 7 7 7 7 7 7 6 6 6 6 5 5 5 5 5 5
16 15 14 15 14 17 17 13 14 10 5 11 16 10 3 3 18 31 27 18 22 30 27 19 21 24 23 20 18 16 13 10 9 10 12 10 9 11 10 9 7 5 4 3 4 5 6 9 9 8 8 9 9 8 8 7 4 5 10 11 9 7 6 6 5 5 4 4 4 5 6 6 6 5 5 6 6 6 6 6 6 7 7 7 7 7 6 6 6 6 6 6 5 6 6 6 6
9 9 11 12 12 13 16 17 16 14 16 19 20 15 3 4 16 16 8 7 14 22 22 17 17 17 17 16 15 18 20 16 13 10 10 10 9 8 8 7 7 8 8 7 7 8 9 9 9 9 8 9 9 7 6 8 7 5 7 10 10 8 7 6 6 6 5 5 7 7 7 7 7 6 5 6 7 7 6 7 7 8 7 6 6 6 6 6 6 6 6 6 6 7 7 7 7
4 4 3 2 7 12 14 18 17 15 18 18 16 14 9 12 18 12 10 15 18 19 17 14 16 14 14 16 14 15 17 19 19 16 13 13 12 11 9 8 6 7 8 9 8 8 8 6 5 5 7 9 9 6 5 7 9 8 7 8 9 8 8 7 6 6 6 8 10 9 9 9 9 9 9 8 9 8 8 8 9 9 8 8 7 6 6 6 6 6 6 6 6 6 6 6 6
11 9 8 7 11 13 8 6 7 4 5 5 4 7 10 13 13 14 17 16 14 17 16 14 17 17 15 15 17 17 16 16 18 18 18 16 14 14 13 12 11 9 7 6 6 6 6 6 6 6 6 7 9 7 6 6 8 9 9 8 8 6 7 8 8 8 9 11 12 11 11 12 11 11 10 10 10 9 10 10 10 10 9 8 7 6 6 6 6 6 6 6 6 6 5 5 5
8 8 10 11 8 5 3 4 5 5 6 7 8 9 10 14 21 26 24 17 13 15 15 13 15 18 15 12 15 18 18 16 15 13 14 15 14 13 13 14 14 13 10 8 7 6 6 8 9 11 11 10 10 10 8 7 8 10 10 10 9 8 8 10 11 12 13 13 12 11 11 10 10 10 10 10 10 11 12 12 11 11 9 8 7 7 6 6 6 6 6 5 5 5 4 4 4
5 5 4 1 0 4 9 9 9 10 6 4 6 5 4 15 29 31 20 12 10 9 10 12 13 15 14 10 10 13 16 18 16 12 9 9 10 11 12 13 13 13 13 12 12 11 10 9 9 11 14 13 13 11 10 9 8 8 9 9 9 11 12 13 14 14 13 12 10 9 8 9 10 10 11 11 12 12 12 12 11 10 8 7 7 7 6 6 6 6 6 5 5 4 4 4 4
16 17 13 8 8 11 13 10 8 6 0 1 5 2 8 19 16 7 2 3 7 8 10 12 11 11 10 8 8 8 8 12 14 15 13 9 8 8 8 9 8 7 7 8 11 12 11 8 6 7 9 11 12 11 11 10 9 8 8 8 10 12 12 12 12 11 8 7 6 6 8 10 11 11 11 12 12 12 11 11 10 9 8 7 6 6 6 6 6 6 6 5 5 5 4 4 4
17 12 10 9 10 9 8 5 2 3 2 7 6 1 14 21 2 -8 -1 3 9 10 7 8 9 8 7 6 7 6 4 6 9 12 14 14 15 13 11 10 8 8 7 7 8 9 8 7 5 3 3 6 8 9 9 9 9 9 9 11 13 14 12 8 6 4 3 3 3 5 8 10 11 11 11 11 11 11 11 10 9 8 8 7 6 6 6 6 6 6 5 5 5 5 4 4 4
-0 -5 -1 3 4 5 6 1 -1 3 4 8 11 9 15 11 -4 -0 4 3 11 12 6 7 9 8 9 8 8 9 8 7 7 9 11 12 14 17 18 17 15 13 10 10 9 10 10 9 7 5 2 3 4 5 7 8 9 9 11 16 18 16 13 9 6 5 5 5 5 6 7 8 9 9 9 10 10 10 9 9 9 9 8 7 6 6 6 6 6 5 5 5 4 4 4 4 5
3 1 5 8 6 7 8 3 0 1 -3 0 5 7 10 5 -1 6 3 -1 8 8 6 10 10 8 8 6 7 11 11 11 10 10 10 9 9 11 15 18 20 18 14 13 13 13 14 12 11 10 6 5 5 5 6 8 9 8 12 18 19 14 10 7 8 9 8 7 7 6 5 4 6 8 9 10 10 9 8 8 8 8 8 6 5 6 6 5 5 5 5 5 4 4 4 4 4
13 6 6 11 11 12 12 6 5 4 -3 -1 -2 -4 4 3 -3 2 4 6 10 8 8 11 8 3 -2 -2 4 8 9 10 10 11 9 7 7 7 10 14 17 19 19 17 16 16 17 16 14 11 9 7 6 8 9 9 8 9 14 18 13 7 6 8 10 9 4 2 3 1 -2 -4 -1 5 8 8 9 9 8 7 8 8 7 6 6 6 6 5 5 5 4 3 3 3 4 4 4
Height
5840 5840 5839 5839 5839 5839 5839 5839 5840 5840 5840 5840 5840 5840 5841 5841 5841 5840 5840 5839 5838 5838 5838 5838 5838 5838 5837 5836 5835 5835 5834 5834 5833 5832 5832 5831 5830 5829 5829 5828 5828 5828 5828 5828 5828 5829 5829 5829 5829 5828 5828 5828 5827 5827 5826 5826 5826 5825 5825 5826 5825 5826 5826 5826 5826 5826 5826 5826 5826 5827 5827 5827 5828 5828 5829 5829 5829 5830 5830 5831 5831 5832 5832 5832 5833 5833 5834 5834 5835 5835 5835 5835 5835 5836 5836 5836 5836
5838 5838 5838 5837 5837 5837 5838 5837 5837 5838 5838 5838 5839 5839 5838 5839 5838 5838 5838 5837 5837 5836 5836 5835 5835 5835 5834 5834 5833 5833 5832 5831 5831 5830 5829 5829 5828 5827 5826 5826 5825 5825 5826 5826 5827 5827 5827 5827 5827 5827 5827 5827 5826 5826 5825 5825 5825 5824 5824 5824 5824 5824 5824 5824 5824 5824 5825 5825 5825 5825 5825 5826 5826 5827 5827 5827 5828 5828 5828 5829 5829 5830 5830 5831 5831 5831 5832 5832 5833 5833 5834 5833 5833 5834 5834 5834 5834
5836 5836 5836 5835 5835 5835 5835 5835 5835 5836 5836 5836 5837 5837 5836 5836 5836 5836 5836 5835 5835 5834 5834 5833 5833 5832 5832 5831 5831 5831 5830 5829 5829 5828 5827 5826 5825 5825 5824 5823 5823 5823 5824 5825 5825 5826 5826 5826 5826 5825 5825 5825 5825 5825 5824 5824 5824 5823 5823 5823 5823 5823 5823 5823 5823 5823 5823 5823 5824 5824 5824 5824 5825 5825 5825 5826 5826 5826 5827 5827 5828 5828 5828 5829 5829 5829 5830 5830 5831 5831 5831 5832 5832 5832 5832 5832 5831
5834 5834 5833 5833 5833 5833 5833 5833 5833 5834 5834 5834 5835 5835 5834 5834 5834 5834 5834 5833 5833 5832 5832 5831 5831 5830 5830 5829 5829 5829 5828 5827 5827 5826 5825 5824 5823 5822 5821 5820 5820 5821 5822 5823 5824 5824 5824 5824 5824 5824 5824 5824 5823 5823 5823 5823 5823 5822 5822 5822 5822 5822 5822 5822 5822 5822 5822 5822 5822 5823 5823 5823 5824 5824 5824 5824 5825 5825 5825 5826 5826 5826 5827 5827 5828 5828 5828 5828 5829 5829 5829 5830 5830 5829 5830 5830 5829
5831 5831 5831 5831 5831 5831 5831 5831 5831 5832 5832 5831 5833 5833 5832 5832 5832 5832 5831 5831 5831 5830 5830 5829 5829 5829 5828 5827 5827 5827 5826 5825 5825 5824 5823 5822 5820 5819 5819 5818 5818 5819 5821 5821 5822 5822 5822 5822 5822 5822 5822 5822 5822 5822 5822 5821 5821 5821 5821 5821 5821 5821 5821 5821 5821 5821 5821 5821 5821 5822 5822 5822 5822 5823 5823 5823 5824 5824 5824 5824 5825 5825 5825 5825 5826 5826 5826 5826 5827 5827 5827 5827 5828 5827 5827 5828 5828
5828 5828 5829 5829 5828 5829 5829 5829 5829 5830 5829 5828 5830 5831 5829 5830 5830 5830 5829 5828 5828 5828 5827 5827 5827 5827 5827 5825 5825 5824 5824 5823 5822 5822 5821 5819 5818 5817 5817 5816 5817 5818 5819 5819 5819 5820 5820 5821 5820 5820 5820 5820 5820 5820 5820 5820 5819 5819 5819 5819 5819 5819 5820 5820 5820 5820 5820 5820 5820 5821 5821 5821 5821 5822 5822 5822 5822 5823 5823 5823 5823 5823 5824 5824 5824 5824 5824 5824 5825 5825 5826 5826 5826 5826 5826 5826 5826
5825 5825 5826 5826 5826 5826 5827 5827 5827 5827 5827 5825 5826 5828 5827 5827 5827 5828 5827 5827 5826 5825 5825 5825 5825 5825 5824 5824 5823 5822 5822 5821 5820 5819 5819 5817 5816 5815 5815 5815 5815 5816 5816 5817 5817 5818 5818 5818 5818 5818 5818 5818 5818 5818 5818 5818 5818 5818 5818 5818 5818 5818 5818 5818 5818 5818 5818 5819 5819 5819 5820 5820 5820 5821 5821 5821 5821 5821 5821 5822 5822 5822 5822 5822 5822 5822 5823 5823 5823 5823 5824 5824 5824 5824 5824 5824 5825
5822 5822 5823 5823 5824 5824 5824 5825 5825 5825 5825 5823 5823 5825 5825 5824 5825 5826 5825 5825 5824 5823 5822 5822 5822 5823 5822 5822 5821 5820 5820 5819 5818 5817 5817 5816 5815 5814 5813 5813 5813 5813 5814 5814 5815 5815 5816 5816 5816 5816 5816 5816 5816 5816 5816 5816 5816 5816 5816 5816 5816 5816 5816 5817 5817 5817 5817 5817 5817 5818 5818 5819 5819 5819 5819 5819 5819 5820 5820 5820 5820 5820 5821 5821 5821 5821 5821 5821 5821 5821 5822 5822 5822 5822 5823 5823 5823
5819 5819 5820 5820 5821 5821 5821 5822 5823 5823 5822 5821 5821 5821 5822 5821 5822 5824 5823 5823 5822 5821 5820 5820 5820 5820 5820 5820 5818 5818 5818 5817 5816 5815 5815 5814 5813 5812 5812 5811 5811 5811 5811 5812 5812 5813 5813 5814 5814 5814 5814 5814 5814 5814 5814 5814 5814 5814 5814 5814 5814 5814 5814 5815 5815 5815 5815 5816 5816 5816 5817 5817 5817 5817 5818 5818 5818 5818 5818 5818 5818 5819 5819 5819 5819 5819 5819 5819 5820 5820 5820 5820 5820 5820 5821 5821 5821
5816 5816 5816 5817 5818 5818 5819 5820 5820 5821 5820 5819 5818 5818 5818 5818 5820 5821 5821 5820 5819 5818 5818 5817 5817 5817 5818 5818 5816 5815 5816 5816 5814 5813 5813 5812 5810 5810 5809 5809 5809 5809 5809 5809 5810 5810 5811 5811 5812 5812 5812 5812 5812 5812 5812 5812 5811 5811 5811 5812 5812 5812 5812 5813 5813 5813 5813 5814 5814 5814 5814 5815 5815 5815 5816 5816 5816 5816 5816 5816 5817 5817 5817 5817 5817 5817 5818 5818 5818 5818 5818 5819 5819 5819 5819 5819 5819
5812 5813 5813 5813 5814 5815 5815 5817 5817 5818 5817 5817 5816 5814 5814 5815 5817 5818 5818 5818 5817 5816 5816 5815 5815 5815 5815 5815 5813 5812 5814 5814 5812 5811 5810 5809 5808 5808 5807 5807 5807 5807 5807 5807 5807 5808 5808 5809 5809 5810 5810 5810 5810 5810 5810 5810 5809 5809 5809 5810 5810 5810 5810 5810 5811 5811 5811 5812 5812 5812 5812 5813 5813 5813 5813 5813 5813 5814 5814 5814 5815 5815 5815 5815 5816 5816 5816 5816 5816 5816 5817 5817 5817 5818 5818 5817 5818
5808 5809 5809 5810 5811 5812 5812 5813 5815 5815 5815 5814 5813 5811 5810 5811 5814 5815 5815 5815 5814 5814 5813 5813 5813 5813 5813 5813 5810 5809 5810 5811 5810 5809 5808 5807 5806 5806 5805 5804 5804 5805 5805 5805 5805 5805 5806 5806 5807 5808 5808 5808 5808 5808 5808 5807 5807 5807 5807 5807 5807 5807 5808 5808 5808 5809 5809 5809 5810 5810 5810 5810 5810 5811 5811 5811 5811 5811 5812 5812 5812 5813 5813 5813 5814 5814 5814 5814 5815 5815 5815 5816 5816 5816 5816 5816 5816
5806 5805 5806 5806 5807 5809 5809 5810 5811 5811 5813 5812 5809 5807 5806 5807 5810 5811 5812 5812 5812 5811 5810 5810 5810 5810 5810 5810 5808 5807 5807 5808 5808 5807 5805 5804 5804 5805 5804 5803 5802 5802 5802 5803 5803 5803 5803 5804 5805 5805 5805 5805 5805 5805 5805 5805 5805 5805 5804 5804 5805 5805 5805 5806 5806 5806 5807 5807 5807 5808 5808 5808 5808 5808 5808 5809 5809 5809 5809 5809 5810 5810 5810 5811 5811 5812 5812 5812 5813 5813 5813 5814 5814 5814 5815 5815 5815
5803 5802 5803 5803 5804 5805 5806 5807 5807 5807 5809 5808 5806 5804 5803 5804 5806 5807 5808 5809 5809 5809 5808 5808 5807 5807 5807 5806 5804 5804 5804 5805 5805 5804 5803 5802 5802 5803 5802 5801 5800 5799 5800 5800 5801 5801 5801 5801 5802 5802 5802 5802 5803 5803 5802 5802 5802 5802 5802 5802 5802 5802 5803 5803 5803 5804 5804 5805 5805 5805 5805 5806 5806 5806 5806 5806 5806 5807 5807 5807 5808 5808 5808 5809 5809 5809 5810 5810 5810 5811 5811 5811 5812 5812 5812 5813 5813
5800 5800 5799 5799 5801 5803 5803 5804 5803 5803 5804 5804 5803 5801 5800 5801 5802 5803 5804 5805 5806 5806 5805 5805 5805 5804 5804 5802 5801 5800 5801 5802 5802 5802 5800 5800 5800 5801 5801 5800 5799 5798 5797 5798 5798 5799 5799 5799 5799 5799 5799 5800 5800 5800 5800 5800 5799 5799 5799 5799 5799 5799 5800 5800 5801 5801 5802 5802 5802 5803 5803 5803 5803 5804 5804 5804 5804 5804 5805 5805 5806 5806 5806 5807 5807 5807 5807 5808 5808 5809 5809 5809 5809 5810 5810 5810 5811
5797 5797 5796 5797 5798 5800 5801 5801 5799 5799 5800 5800 5800 5799 5797 5797 5798 5799 5800 5801 5803 5803 5802 5802 5802 5802 5801 5799 5798 5798 5798 5799 5799 5799 5798 5797 5797 5798 5798 5798 5797 5796 5795 5795 5796 5796 5797 5796 5796 5796 5796 5796 5797 5797 5797 5797 5797 5796 5796 5796 5796 5797 5797 5798 5798 5798 5799 5799 5800 5800 5800 5801 5801 5801 5801 5802 5802 5802 5803 5803 5804 5804 5804 5805 5805 5805 5805 5806 5806 5807 5807 5807 5807 5807 5807 5808 5808
5794 5794 5794 5794 5795 5797 5798 5797 5796 5796 5796 5797 5796 5795 5794 5794 5794 5795 5796 5797 5799 5799 5799 5799 5800 5800 5798 5795 5795 5796 5796 5796 5797 5796 5796 5794 5795 5795 5796 5796 5795 5794 5793 5793 5793 5793 5793 5794 5793 5793 5793 5793 5794 5794 5794 5794 5794 5794 5793 5794 5794 5794 5794 5795 5795 5796 5796 5797 5797 5797 5798 5798 5798 5799 5799 5799 5800 5800 5800 5801 5801 5802 5802 5802 5803 5803 5803 5804 5804 5805 5805 5805 5805 5805 5805 5805 5805
5790 5791 5791 5791 5792 5794 5795 5794 5793 5792 5792 5793 5793 5792 5791 5791 5791 5792 5793 5794 5795 5796 5797 5796 5797 5797 5794 5792 5791 5793 5793 5794 5794 5794 5794 5792 5792 5792 5793 5793 5793 5792 5791 5790 5790 5790 5790 5790 5790 5790 5791 5790 5791 5791 5791 5791 5791 5791 5791 5791 5791 5791 5792 5792 5793 5793 5794 5794 5794 5795 5795 5796 5796 5796 5797 5797 5797 5798 5798 5799 5799 5799 5800 5800 5800 5801 5801 5802 5802 5802 5802 5803 5803 5803 5803 5803 5803
5787 5787 5788 5789 5789 5790 5791 5791 5790 5789 5788 5789 5789 5788 5787 5787 5788 5788 5789 5790 5792 5793 5795 5794 5793 5793 5791 5788 5788 5789 5790 5791 5791 5791 5791 5790 5789 5789 5790 5790 5791 5790 5789 5789 5787 5787 5787 5787 5787 5788 5788 5788 5788 5788 5788 5788 5788 5788 5789 5789 5789 5789 5790 5790 5791 5791 5791 5792 5792 5792 5793 5793 5794 5794 5795 5795 5795 5796 5796 5796 5797 5797 5797 5798 5798 5799 5799 5799 5799 5799 5800 5800 5800 5801 5801 5801 5800
5783 5783 5785 5786 5785 5786 5787 5787 5786 5785 5785 5785 5785 5784 5784 5784 5784 5785 5785 5786 5789 5791 5792 5791 5790 5789 5787 5785 5785 5785 5787 5788 5789 5788 5788 5787 5786 5786 5787 5787 5788 5788 5788 5787 5785 5784 5784 5784 5785 5785 5786 5785 5785 5785 5785 5785 5785 5785 5786 5786 5786 5787 5787 5788 5788 5788 5789 5789 5790 5790 5791 5791 5791 5792 5792 5793 5793 5793 5793 5794 5794 5794 5794 5795 5796 5796 5796 5797 5797 5797 5797 5798 5798 5798 5798 5798 5798
5779 5781 5783 5782 5780 5782 5784 5783 5782 5781 5781 5781 5781 5781 5781 5781 5779 5781 5782 5783 5787 5788 5787 5785 5785 5785 5783 5782 5781 5781 5784 5785 5786 5785 5785 5784 5784 5784 5784 5784 5785 5786 5786 5785 5782 5781 5781 5782 5783 5783 5783 5783 5783 5782 5782 5782 5782 5783 5783 5783 5784 5784 5785 5785 5785 5786 5786 5787 5787 5787 5788 5788 5789 5789 5789 5790 5790 5790 5791 5791 5791 5792 5792 5792 5793 5794 5794 5794 5795 5794 5794 5795 5795 5795 5795 5795 5795
5775 5779 5778 5777 5776 5778 5780 5778 5778 5777 5777 5777 5777 5777 5778 5778 5777 5778 5778 5779 5783 5783 5781 5780 5780 5781 5780 5778 5777 5778 5780 5781 5782 5783 5783 5781 5780 5781 5781 5781 5782 5782 5783 5782 5779 5778 5778 5779 5779 5780 5780 5780 5780 5780 5779 5779 5779 5780 5780 5781 5781 5782 5782 5782 5782 5783 5783 5784 5784 5784 5785 5785 5786 5786 5786 5787 5787 5788 5788 5788 5789 5789 5789 5790 5790 5791 5791 5791 5791 5791 5791 5791 5791 5792 5792 5791 5791
5771 5775 5773 5772 5772 5773 5774 5773 5773 5772 5772 5773 5773 5773 5774 5774 5775 5775 5774 5776 5778 5777 5777 5776 5776 5777 5776 5775 5774 5775 5776 5776 5778 5779 5780 5779 5778 5778 5778 5778 5779 5779 5779 5779 5776 5775 5776 5777 5776 5776 5776 5777 5777 5777 5777 5777 5777 5777 5777 5778 5778 5779 5779 5779 5779 5779 5780 5780 5780 5781 5781 5782 5782 5783 5783 5784 5784 5784 5785 5785 5785 5786 5786 5786 5787 5787 5787 5787 5787 5787 5787 5788 5788 5788 5788 5788 5788
5766 5770 5768 5768 5767 5768 5768 5767 5769 5768 5768 5769 5768 5769 5771 5770 5771 5771 5772 5774 5772 5771 5773 5772 5772 5773 5771 5771 5770 5771 5772 5773 5774 5775 5775 5776 5775 5774 5775 5775 5775 5775 5775 5774 5773 5772 5773 5773 5773 5772 5773 5773 5774 5774 5774 5774 5774 5774 5775 5775 5775 5775 5776 5776 5776 5776 5776 5777 5777 5778 5778 5779 5779 5779 5780 5780 5781 5781 5781 5782 5782 5782 5782 5782 5782 5783 5783 5783 5783 5783 5783 5784 5784 5784 5784 5784 5784
5761 5763 5763 5763 5763 5763 5763 5762 5763 5764 5764 5764 5764 5765 5766 5766 5765 5767 5771 5772 5768 5767 5768 5768 5768 5769 5768 5766 5766 5767 5768 5770 5770 5771 5771 5772 5772 5772 5772 5772 5771 5771 5771 5770 5770 5769 5770 5770 5769 5769 5769 5770 5770 5770 5771 5771 5771 5771 5772 5771 5772 5772 5772 5772 5772 5773 5773 5774 5774 5774 5775 5775 5776 5776 5776 5777 5777 5777 5777 5778 5778 5779 5778 5778 5778 5779 5779 5779 5779 5779 5779 5779 5780 5780 5780 5780 5779
5757 5757 5757 5758 5759 5759 5758 5758 5757 5757 5759 5759 5759 5761 5762 5763 5760 5762 5770 5768 5763 5762 5762 5764 5764 5764 5764 5761 5761 5763 5764 5765 5766 5766 5766 5767 5769 5769 5768 5767 5767 5768 5767 5767 5767 5766 5766 5766 5766 5766 5766 5766 5766 5767 5767 5767 5768 5768 5768 5768 5768 5768 5768 5769 5769 5769 5769 5770 5770 5770 5771 5771 5772 5772 5772 5773 5773 5773 5773 5774 5774 5774 5774 5774 5774 5774 5774 5774 5774 5774 5774 5775 5775 5775 5775 5775 5774
5752 5752 5753 5754 5753 5754 5754 5753 5752 5751 5753 5753 5753 5755 5757 5758 5756 5759 5765 5762 5758 5758 5758 5759 5760 5760 5759 5757 5757 5758 5759 5760 5761 5761 5762 5763 5765 5766 5764 5763 5764 5764 5764 5763 5763 5763 5763 5762 5762 5762 5762 5762 5762 5762 5763 5763 5763 5764 5764 5764 5764 5764 5765 5765 5765 5765 5765 5765 5766 5766 5767 5767 5767 5768 5768 5768 5768 5768 5769 5769 5769 5769 5769 5769 5769 5769 5769 5769 5770 5770 5769 5770 5770 5770 5770 5770 5769
5747 5746 5749 5750 5747 5750 5749 5748 5747 5745 5746 5746 5744 5747 5753 5756 5754 5756 5757 5754 5753 5754 5755 5755 5755 5755 5754 5753 5752 5753 5754 5755 5755 5755 5757 5759 5759 5761 5761 5760 5760 5760 5760 5760 5759 5759 5759 5759 5758 5758 5758 5758 5759 5759 5759 5758 5759 5759 5759 5760 5760 5760 5760 5761 5761 5761 5761 5761 5761 5761 5762 5762 5762 5763 5763 5763 5763 5764 5764 5764 5765 5765 5764 5764 5764 5764 5764 5764 5764 5764 5764 5764 5764 5765 5765 5765 5764
5742 5740 5743 5745 5744 5745 5746 5744 5742 5740 5741 5739 5735 5737 5749 5754 5751 5751 5750 5748 5748 5749 5751 5750 5751 5751 5750 5749 5748 5748 5748 5748 5749 5750 5752 5753 5754 5756 5756 5756 5756 5756 5756 5756 5756 5755 5755 5755 5754 5754 5754 5754 5755 5755 5755 5754 5754 5754 5754 5755 5755 5756 5756 5756 5756 5756 5756 5756 5756 5756 5757 5757 5757 5757 5758 5758 5758 5758 5759 5759 5759 5759 5759 5759 5759 5758 5758 5758 5758 5759 5759 5759 5759 5759 5759 5759 5758
5737 5735 5736 5739 5739 5740 5742 5739 5737 5736 5734 5731 5726 5729 5745 5752 5745 5746 5746 5742 5743 5744 5746 5746 5747 5747 5746 5745 5743 5743 5743 5742 5743 5745 5746 5748 5749 5751 5751 5752 5752 5751 5752 5752 5752 5752 5751 5751 5751 5750 5750 5750 5750 5750 5751 5750 5750 5750 5750 5750 5750 5750 5751 5751 5751 5751 5752 5752 5752 5752 5752 5752 5752 5752 5752 5752 5753 5753 5753 5753 5753 5753 5753 5753 5753 5753 5752 5752 5752 5752 5752 5752 5753 5753 5753 5753 5752
5730 5730 5731 5733 5733 5736 5737 5733 5730 5730 5727 5725 5721 5722 5740 5747 5738 5740 5742 5738 5738 5739 5741 5742 5743 5744 5742 5741 5739 5740 5740 5737 5738 5739 5741 5742 5744 5746 5746 5747 5747 5747 5747 5748 5748 5748 5748 5747 5746 5746 5745 5745 5745 5746 5746 5746 5746 5745 5745 5745 5745 5745 5745 5746 5746 5746 5746 5746 5747 5746 5746 5746 5746 5746 5746 5746 5746 5746 5747 5747 5747 5746 5746 5746 5747 5747 5746 5746 5746 5746 5746 5746 5746 5746 5747 5747 5746
5725 5724 5726 5726 5724 5729 5730 5725 5723 5723 5721 5720 5717 5718 5734 5739 5731 5735 5737 5735 5735 5734 5736 5737 5738 5739 5738 5736 5735 5735 5736 5735 5733 5734 5736 5737 5738 5740 5741 5741 5742 5742 5743 5743 5744 5744 5743 5743 5742 5742 5741 5740 5740 5741 5742 5741 5741 5741 5740 5740 5740 5740 5740 5740 5740 5740 5741 5741 5741 5741 5741 5741 5740 5740 5740 5740 5740 5740 5740 5740 5740 5740 5740 5740 5740 5740 5740 5740 5740 5740 5739 5739 5739 5739 5739 5740 5740
5719 5714 5716 5718 5717 5721 5723 5720 5718 5716 5714 5714 5712 5715 5728 5731 5726 5729 5731 5729 5729 5729 5731 5732 5732 5733 5733 5733 5731 5730 5731 5732 5730 5729 5730 5732 5733 5734 5735 5736 5736 5737 5738 5738 5739 5738 5739 5738 5738 5737 5737 5736 5736 5736 5737 5737 5737 5736 5736 5735 5735 5734 5734 5735 5735 5735 5735 5735 5735 5735 5735 5735 5734 5734 5734 5734 5734 5733 5734 5734 5734 5734 5734 5733 5733 5733 5733 5733 5733 5733 5733 5733 5733 5733 5733 5733 5733
5709 5704 5706 5711 5711 5714 5717 5715 5712 5709 5707 5708 5707 5709 5721 5726 5721 5723 5725 5723 5722 5724 5726 5726 5727 5728 5728 5728 5728 5727 5727 5727 5727 5725 5725 5726 5728 5729 5730 5730 5731 5732 5732 5733 5733 5733 5733 5733 5733 5733 5732 5732 5731 5731 5731 5732 5732 5732 5731 5730 5730 5730 5729 5729 5729 5729 5729 5729 5729 5729 5729 5729 5728 5728 5728 5728 5728 5727 5727 5727 5727 5727 5727 5727 5727 5726 5726 5726 5726 5726 5726 5726 5726 5726 5726 5726 5726
5698 5697 5700 5704 5705 5707 5711 5709 5704 5701 5699 5701 5700 5702 5712 5718 5718 5718 5718 5716 5717 5720 5721 5720 5722 5723 5723 5723 5724 5724 5723 5723 5723 5723 5722 5721 5723 5724 5724 5725 5725 5726 5727 5727 5728 5728 5728 5728 5728 5728 5727 5727 5726 5726 5726 5726 5727 5727 5726 5726 5725 5725 5725 5724 5724 5724 5724 5723 5723 5723 5723 5723 5722 5722 5722 5722 5722 5721 5721 5721 5721 5721 5721 5721 5720 5720 5720 5720 5719 5719 5719 5719 5719 5719 5719 5719 5719
5690 5690 5692 5695 5697 5701 5706 5702 5696 5692 5689 5693 5694 5693 5700 5709 5714 5714 5711 5710 5712 5716 5717 5715 5716 5717 5717 5717 5718 5719 5719 5719 5719 5719 5719 5717 5717 5718 5718 5719 5719 5720 5721 5721 5722 5723 5723 5723 5723 5722 5722 5722 5721 5721 5721 5721 5722 5722 5721 5721 5720 5720 5720 5720 5719 5719 5718 5718 5717 5717 5717 5717 5717 5717 5716 5716 5716 5716 5715 5715 5715 5715 5715 5714 5714 5714 5713 5713 5713 5713 5713 5713 5713 5713 5712 5712 5713
5684 5683 5684 5687 5689 5694 5699 5692 5687 5683 5678 5685 5688 5682 5690 5703 5710 5710 5705 5704 5708 5711 5711 5710 5711 5711 5711 5711 5712 5713 5714 5715 5715 5714 5714 5713 5712 5712 5712 5713 5713 5714 5715 5715 5716 5717 5718 5718 5718 5717 5716 5716 5716 5715 5715 5716 5716 5716 5716 5715 5715 5715 5715 5715 5715 5714 5713 5713 5712 5711 5711 5711 5711 5710 5710 5710 5710 5710 5710 5709 5709 5709 5709 5708 5708 5708 5708 5707 5707 5707 5706 5706 5706 5706 5706 5706 5706
5678 5677 5677 5680 5682 5686 5688 5681 5679 5676 5668 5677 5681 5672 5682 5698 5703 5704 5700 5699 5703 5704 5704 5705 5706 5705 5704 5705 5705 5706 5708 5709 5709 5709 5709 5708 5707 5707 5707 5707 5708 5709 5709 5710 5710 5711 5711 5711 5712 5712 5711 5710 5710 5709 5710 5710 5711 5710 5710 5710 5709 5709 5709 5709 5709 5709 5708 5707 5707 5706 5706 5705 5705 5705 5704 5704 5704 5704 5704 5703 5703 5703 5703 5702 5702 5702 5701 5701 5700 5700 5700 5700 5700 5700 5700 5699 5699
5673 5673 5671 5674 5677 5675 5675 5676 5674 5668 5661 5669 5673 5664 5674 5691 5696 5698 5695 5693 5696 5697 5697 5701 5701 5700 5699 5699 5699 5700 5701 5703 5703 5704 5704 5703 5703 5702 5702 5702 5703 5703 5704 5704 5705 5705 5705 5705 5705 5706 5706 5705 5704 5703 5703 5704 5705 5704 5704 5704 5704 5704 5704 5703 5703 5703 5702 5702 5701 5701 5701 5700 5700 5699 5698 5698 5698 5697 5697 5697 5697 5697 5696 5696 5696 5696 5695 5695 5694 5694 5694 5693 5693 5693 5693 5693 5692
5669 5668 5666 5668 5672 5664 5664 5671 5667 5661 5657 5661 5664 5657 5665 5683 5688 5691 5689 5686 5689 5690 5691 5696 5695 5694 5694 5693 5692 5692 5694 5696 5697 5698 5698 5698 5698 5697 5697 5696 5696 5697 5697 5698 5699 5699 5699 5698 5699 5699 5699 5699 5698 5697 5697 5697 5698 5698 5698 5698 5698 5698 5698 5698 5697 5697 5696 5696 5696 5696 5695 5695 5694 5694 5693 5692 5692 5691 5691 5691 5690 5690 5690 5689 5689 5689 5689 5688 5688 5687 5687 5687 5687 5686 5686 5686 5685
5665 5665 5663 5662 5664 5659 5658 5664 5660 5655 5655 5657 5656 5647 5656 5676 5679 5680 5685 5682 5682 5683 5686 5689 5688 5688 5687 5686 5686 5685 5686 5688 5689 5690 5691 5691 5692 5692 5692 5691 5691 5691 5691 5692 5692 5692 5692 5692 5692 5692 5692 5692 5692 5691 5691 5691 5691 5692 5692 5691 5691 5692 5692 5691 5691 5690 5690 5690 5690 5689 5689 5689 5688 5688 5687 5687 5686 5686 5685 5684 5684 5683 5683 5682 5682 5682 5682 5682 5681 5681 5681 5680 5680 5679 5678 5678 5678
5661 5663 5661 5656 5656 5656 5655 5657 5652 5649 5652 5655 5649 5639 5648 5667 5669 5672 5679 5677 5676 5677 5679 5681 5682 5682 5679 5677 5678 5677 5678 5680 5681 5682 5684 5684 5685 5685 5685 5685 5685 5685 5684 5685 5685 5685 5685 5685 5685 5685 5685 5685 5685 5685 5684 5684 5684 5685 5685 5685 5685 5685 5685 5685 5684 5684 5684 5683 5683 5683 5683 5682 5682 5682 5681 5681 5680 5679 5679 5678 5677 5677 5676 5676 5675 5675 5675 5674 5674 5674 5673 5672 5672 5671 5670 5669 5669
5658 5659 5657 5652 5652 5652 5651 5651 5647 5644 5647 5649 5644 5636 5638 5652 5664 5669 5670 5668 5671 5672 5672 5674 5675 5674 5671 5670 5670 5670 5671 5673 5674 5676 5677 5678 5678 5678 5678 5678 5678 5678 5678 5678 5678 5678 5678 5678 5678 5678 5678 5678 5678 5678 5677 5677 5677 5678 5678 5678 5678 5678 5678 5678 5678 5677 5677 5676 5676 5676 5676 5676 5675 5675 5675 5674 5674 5673 5672 5672 5671 5670 5670 5669 5669 5668 5668 5667 5667 5666 5665 5664 5663 5663 5662 5661 5660
5654 5654 5651 5650 5650 5649 5648 5647 5643 5642 5642 5640 5642 5639 5630 5636 5657 5665 5659 5659 5666 5668 5667 5667 5666 5665 5664 5664 5664 5663 5664 5665 5667 5669 5670 5671 5671 5671 5671 5671 5671 5671 5671 5671 5671 5671 5671 5671 5671 5672 5672 5672 5672 5671 5671 5671 5670 5671 5671 5671 5671 5671 5671 5671 5671 5671 5670 5670 5670 5669 5669 5669 5669 5668 5668 5668 5667 5666 5666 5665 5664 5664 5663 5662 5662 5661 5660 5660 5659 5658 5657 5657 5656 5655 5654 5653 5652
5651 5650 5647 5647 5646 5645 5645 5642 5640 5640 5636 5634 5642 5642 5627 5626 5646 5655 5650 5653 5661 5664 5661 5657 5657 5657 5657 5658 5658 5657 5657 5658 5660 5662 5663 5664 5664 5665 5665 5665 5665 5665 5664 5664 5664 5664 5664 5665 5665 5665 5665 5665 5665 5665 5665 5664 5664 5664 5664 5664 5664 5664 5664 5664 5664 5664 5663 5663 5663 5662 5662 5662 5662 5661 5661 5660 5660 5659 5659 5658 5657 5657 5656 5655 5655 5654 5653 5652 5651 5651 5650 5649 5648 5647 5646 5645 5644
5647 5646 5644 5644 5643 5642 5641 5638 5638 5636 5631 5632 5641 5640 5624 5620 5634 5645 5646 5650 5653 5654 5653 5650 5649 5650 5650 5651 5651 5651 5651 5651 5653 5655 5656 5656 5657 5658 5658 5658 5658 5658 5658 5658 5658 5658 5658 5658 5658 5658 5658 5658 5659 5659 5658 5658 5657 5657 5657 5657 5657 5657 5657 5657 5656 5656 5656 5656 5656 5655 5655 5655 5655 5654 5654 5653 5653 5652 5651 5651 5650 5650 5649 5648 5648 5647 5646 5645 5644 5643 5642 5641 5640 5639 5638 5637 5636
5644 5642 5640 5641 5640 5639 5637 5636 5635 5631 5628 5632 5637 5634 5623 5616 5628 5642 5644 5644 5645 5643 5644 5643 5643 5643 5643 5642 5641 5641 5643 5644 5646 5648 5649 5649 5650 5650 5651 5651 5651 5651 5651 5651 5651 5652 5652 5651 5652 5652 5652 5652 5652 5652 5652 5652 5651 5651 5650 5650 5649 5649 5650 5650 5649 5649 5649 5649 5649 5648 5648 5648 5647 5647 5646 5646 5645 5645 5644 5643 5643 5642 5642 5641 5640 5639 5638 5637 5636 5635 5634 5633 5632 5631 5629 5628 5627
5641 5639 5637 5637 5637 5636 5634 5633 5632 5628 5627 5631 5631 5628 5622 5616 5626 5640 5640 5636 5636 5637 5636 5636 5637 5637 5633 5632 5633 5634 5636 5638 5640 5640 5641 5642 5642 5643 5643 5644 5644 5644 5644 5644 5644 5645 5645 5644 5645 5645 5645 5645 5645 5645 5645 5645 5645 5645 5644 5643 5642 5642 5642 5642 5642 5642 5642 5642 5642 5641 5641 5641 5640 5640 5639 5639 5638 5637 5636 5636 5635 5634 5634 5633 5632 5631 5630 5629 5628 5627 5626 5625 5623 5622 5621 5619 5618
5638 5637 5635 5633 5632 5632 5631 5630 5629 5626 5626 5628 5626 5622 5619 5618 5625 5634 5633 5627 5628 5633 5632 5630 5630 5628 5624 5625 5627 5628 5629 5631 5632 5632 5633 5634 5635 5635 5636 5636 5636 5636 5637 5637 5637 5637 5637 5637 5637 5637 5638 5638 5638 5638 5638 5639 5639 5639 5638 5637 5636 5635 5635 5635 5635 5634 5634 5634 5635 5634 5634 5633 5633 5633 5632 5632 5631 5630 5629 5628 5627 5627 5626 5625 5624 5623 5622 5621 5620 5619 5617 5616 5615 5613 5612 5610 5609
5636 5635 5633 5631 5630 5628 5627 5626 5624 5623 5622 5623 5622 5619 5616 5617 5621 5626 5625 5622 5623 5628 5629 5625 5622 5619 5618 5620 5621 5621 5622 5623 5624 5625 5625 5626 5627 5628 5628 5629 5629 5629 5629 5629 5629 5630 5630 5630 5630 5630 5631 5631 5631 5631 5631 5631 5632 5632 5631 5630 5629 5628 5628 5627 5627 5627 5627 5627 5628 5628 5627 5627 5626 5626 5626 5625 5624 5623 5622 5621 5620 5619 5618 5617 5616 5615 5614 5613 5611 5610 5609 5608 5606 5605 5603 5601 5600
5633 5633 5631 5630 5628 5625 5623 5623 5620 5619 5619 5619 5618 5616 5614 5614 5617 5620 5620 5618 5619 5621 5621 5619 5616 5614 5614 5614 5614 5614 5615 5616 5617 5618 5618 5619 5620 5620 5621 5622 5622 5621 5621 5621 5622 5622 5622 5622 5623 5623 5623 5624 5624 5624 5624 5624 5625 5625 5624 5623 5622 5621 5620 5620 5620 5620 5620 5620 5621 5621 5620 5620 5620 5619 5619 5618 5617 5616 5615 5614 5613 5611 5610 5609 5608 5607 5605 5604 5603 5602 5601 5599 5598 5596 5594 5592 5591
5630 5631 5629 5627 5626 5622 5620 5619 5618 5616 5614 5614 5614 5612 5612 5611 5611 5615 5615 5614 5616 5615 5613 5612 5611 5610 5610 5609 5608 5608 5608 5609 5610 5611 5612 5612 5613 5613 5614 5614 5614 5614 5614 5614 5615 5615 5615 5615 5615 5616 5616 5616 5617 5617 5617 5617 5618 5618 5617 5616 5615 5614 5614 5613 5613 5613 5614 5614 5615 5615 5614 5614 5613 5613 5612 5611 5610 5609 5608 5606 5605 5603 5602 5601 5600 5599 5597 5596 5595 5593 5592 5591 5589 5588 5586 5584 5582
5627 5628 5626 5624 5622 5620 5617 5615 5616 5614 5610 5610 5610 5608 5609 5608 5606 5609 5611 5611 5612 5610 5608 5608 5607 5606 5606 5605 5603 5602 5602 5602 5603 5604 5605 5606 5606 5606 5606 5607 5607 5607 5607 5608 5608 5608 5608 5608 5608 5608 5609 5609 5609 5609 5609 5610 5610 5610 5610 5609 5608 5607 5607 5607 5607 5608 5608 5608 5608 5608 5608 5607 5606 5605 5604 5603 5602 5601 5600 5598 5597 5596 5594 5593 5592 5591 5589 5588 5587 5585 5584 5582 5581 5579 5577 5574 5572
5624 5623 5621 5619 5618 5617 5615 5612 5611 5610 5606 5605 5607 5605 5605 5604 5601 5603 5606 5606 5607 5606 5603 5603 5602 5601 5600 5600 5599 5598 5597 5596 5597 5598 5599 5600 5600 5600 5599 5599 5599 5600 5600 5600 5601 5601 5601 5601 5601 5601 5601 5602 5602 5602 5602 5602 5603 5603 5602 5602 5601 5601 5601 5601 5601 5602 5602 5602 5601 5601 5600 5599 5598 5597 5596 5595 5594 5593 5592 5590 5589 5588 5586 5585 5584 5583 5582 5580 5579 5577 5575 5574 5572 5570 5568 5565 5563
5620 5618 5617 5616 5615 5614 5612 5609 5607 5606 5601 5599 5601 5601 5601 5600 5598 5598 5600 5601 5602 5601 5599 5597 5597 5596 5595 5595 5594 5593 5593 5592 5591 5592 5593 5594 5594 5593 5593 5592 5592 5593 5593 5593 5593 5593 5593 5593 5593 5594 5594 5594 5594 5594 5595 5595 5595 5595 5595 5595 5595 5595 5595 5595 5595 5595 5595 5595 5594 5593 5593 5592 5590 5589 5588 5587 5586 5585 5584 5582 5581 5580 5578 5577 5576 5575 5574 5572 5571 5569 5567 5565 5563 5561 5558 5556 5553
5616 5614 5613 5612 5612 5611 5609 5607 5604 5602 5598 5595 5594 5594 5594 5596 5595 5594 5596 5596 5596 5595 5593 5592 5592 5591 5590 5588 5588 5588 5588 5587 5587 5586 5586 5587 5587 5587 5586 5586 5585 5585 5585 5586 5586 5586 5586 5586 5586 5586 5586 5586 5586 5586 5587 5587 5588 5588 5588 5588 5589 5588 5589 5589 5589 5589 5588 5587 5586 5586 5585 5584 5583 5582 5581 5580 5579 5577 5576 5575 5573 5572 5571 5569 5568 5567 5565 5564 5562 5560 5558 5556 5554 5551 5548 5546 5543
5612 5610 5610 5609 5609 5608 5605 5603 5602 5600 5596 5593 5589 5584 5587 5592 5591 5591 5593 5592 5590 5589 5588 5588 5587 5586 5585 5583 5582 5581 5581 5581 5581 5581 5581 5580 5580 5580 5579 5579 5578 5578 5578 5578 5579 5579 5579 5579 5578 5578 5578 5578 5578 5579 5579 5580 5580 5581 5581 5581 5582 5582 5582 5582 5582 5582 5581 5580 5579 5579 5578 5577 5576 5575 5574 5573 5572 5570 5569 5567 5566 5564 5563 5561 5560 5558 5557 5555 5553 5551 5549 5546 5544 5541 5538 5535 5532
5609 5608 5608 5606 5606 5604 5600 5598 5598 5598 5594 5592 5587 5576 5577 5587 5586 5585 5590 5588 5585 5584 5583 5583 5582 5581 5580 5578 5576 5575 5574 5575 5575 5575 5575 5574 5574 5573 5572 5572 5572 5572 5572 5571 5571 5571 5571 5571 5571 5571 5571 5570 5571 5571 5572 5572 5573 5574 5574 5575 5575 5576 5576 5576 5576 5575 5574 5573 5572 5571 5571 5570 5569 5569 5568 5566 5565 5563 5561 5559 5558 5556 5554 5553 5551 5549 5547 5545 5543 5540 5538 5536 5534 5531 5528 5525 5522